| time (UTC) | temp C | wind direction | speed KPH | gust KPH | rain 1hr cm | rain 24hr cm | rain mn cm | humidity % | barometer mb |
| 20260507043237 | 15 | 294 | 8.0 | 14.5 | 0.00 | 0.00 | 0.00 | 89 | 1017.7 |
| 20260507042225 | 15 | 247 | 11.3 | 17.7 | 0.00 | 0.00 | 0.00 | 89 | 1017.7 |
| 20260507041221 | 15 | 306 | 12.9 | 17.7 | 0.00 | 0.00 | 0.00 | 89 | 1017.7 |
| 20260507040152 | 16 | 238 | 12.9 | 20.9 | 0.00 | 0.00 | 0.00 | 88 | 1017.6 |
| 20260507034015 | 16 | 336 | 12.9 | 19.3 | 0.00 | 0.00 | 0.00 | 88 | 1017.3 |
| 20260507033011 | 16 | 304 | 14.5 | 20.9 | 0.00 | 0.00 | 0.00 | 88 | 1017.3 |
| 20260507032001 | 16 | 281 | 14.5 | 20.9 | 0.00 | 0.00 | 0.00 | 87 | 1017.3 |
| 20260507031002 | 16 | 293 | 14.5 | 22.5 | 0.00 | 0.00 | 0.00 | 87 | 1017.1 |
| 20260507025949 | 16 | 285 | 12.9 | 24.1 | 0.00 | 0.00 | 0.00 | 87 | 1017.1 |
| 20260507025008 | 16 | 283 | 14.5 | 24.1 | 0.00 | 0.00 | 0.00 | 86 | 1017.1 |
| 20260507022847 | 16 | 289 | 14.5 | 24.1 | 0.00 | 0.00 | 0.00 | 84 | 1016.8 |
| 20260507021849 | 16 | 271 | 12.9 | 19.3 | 0.00 | 0.00 | 0.00 | 83 | 1016.8 |
| 20260507020836 | 17 | 242 | 11.3 | 19.3 | 0.00 | 0.00 | 0.00 | 83 | 1016.6 |
| 20260507012432 | 17 | 342 | 14.5 | 24.1 | 0.00 | 0.00 | 0.00 | 82 | 1016.6 |
| 20260507011440 | 17 | 219 | 14.5 | 20.9 | 0.00 | 0.00 | 0.00 | 82 | 1016.7 |
| 20260507010434 | 17 | 269 | 14.5 | 20.9 | 0.00 | 0.00 | 0.00 | 82 | 1016.6 |
| 20260507005404 | 17 | 259 | 14.5 | 22.5 | 0.00 | 0.00 | 0.00 | 81 | 1016.5 |
| 20260507004409 | 17 | 232 | 14.5 | 22.5 | 0.00 | 0.00 | 0.00 | 81 | 1016.5 |
| 20260507002253 | 17 | 274 | 14.5 | 24.1 | 0.00 | 0.00 | 0.00 | 80 | 1016.7 |
| 20260507001254 | 17 | 293 | 14.5 | 24.1 | 0.00 | 0.00 | 0.00 | 79 | 1016.7 |
| 20260506234020 | 18 | 252 | 12.9 | 20.9 | 0.00 | 0.00 | 0.00 | 78 | 1016.6 |
| 20260506233030 | 18 | 274 | 12.9 | 20.9 | 0.00 | 0.00 | 0.00 | 78 | 1016.6 |
| 20260506232005 | 18 | 295 | 12.9 | 20.9 | 0.00 | 0.00 | 0.00 | 77 | 1016.6 |
| 20260506230957 | 19 | 304 | 12.9 | 19.3 | 0.00 | 0.00 | 0.00 | 76 | 1016.7 |
| 20260506225950 | 19 | 307 | 12.9 | 20.9 | 0.00 | 0.00 | 0.00 | 76 | 1016.8 |
| 20260506224936 | 19 | 257 | 12.9 | 20.9 | 0.00 | 0.00 | 0.00 | 75 | 1016.9 |
| 20260506221658 | 19 | 230 | 11.3 | 17.7 | 0.00 | 0.00 | 0.00 | 75 | 1017.4 |
| 20260506220702 | 19 | 247 | 11.3 | 17.7 | 0.00 | 0.00 | 0.00 | 76 | 1017.6 |
| 20260506215725 | 19 | 250 | 11.3 | 17.7 | 0.00 | 0.00 | 0.00 | 76 | 1017.6 |
| 20260506214659 | 19 | 253 | 11.3 | 17.7 | 0.00 | 0.00 | 0.00 | 75 | 1017.7 |
| 20260506213625 | 19 | 308 | 11.3 | 16.1 | 0.00 | 0.00 | 0.00 | 74 | 1017.9 |
| 20260506212612 | 20 | 224 | 9.7 | 17.7 | 0.00 | 0.00 | 0.00 | 74 | 1017.9 |
| 20260506211538 | 19 | 354 | 9.7 | 17.7 | 0.00 | 0.00 | 0.00 | 74 | 1018.0 |
| 20260506210547 | 19 | 356 | 9.7 | 17.7 | 0.00 | 0.00 | 0.00 | 75 | 1018.0 |
| 20260506205552 | 19 | 259 | 9.7 | 16.1 | 0.00 | 0.00 | 0.00 | 73 | 1018.1 |
| 20260506204559 | 19 | 245 | 9.7 | 16.1 | 0.00 | 0.00 | 0.00 | 74 | 1018.2 |
| 20260506203537 | 19 | 241 | 11.3 | 16.1 | 0.00 | 0.00 | 0.00 | 73 | 1018.2 |
| 20260506202534 | 19 | 299 | 9.7 | 16.1 | 0.00 | 0.00 | 0.00 | 74 | 1018.2 |
| 20260506201501 | 19 | 321 | 9.7 | 14.5 | 0.00 | 0.00 | 0.00 | 73 | 1018.4 |
| 20260506200441 | 19 | 238 | 9.7 | 17.7 | 0.00 | 0.00 | 0.00 | 73 | 1018.5 |
| 20260506195424 | 19 | 207 | 9.7 | 17.7 | 0.00 | 0.00 | 0.00 | 74 | 1018.5 |
| 20260506194359 | 20 | 227 | 9.7 | 16.1 | 0.00 | 0.00 | 0.00 | 73 | 1018.5 |
| 20260506193423 | 20 | 274 | 9.7 | 16.1 | 0.00 | 0.00 | 0.00 | 73 | 1018.7 |
| 20260506192412 | 20 | 318 | 9.7 | 14.5 | 0.00 | 0.00 | 0.00 | 72 | 1018.7 |
| 20260506191411 | 19 | 248 | 9.7 | 14.5 | 0.00 | 0.00 | 0.00 | 73 | 1018.9 |
| 20260506190435 | 19 | 219 | 9.7 | 16.1 | 0.00 | 0.00 | 0.00 | 72 | 1018.9 |
| 20260506185402 | 19 | 135 | 9.7 | 16.1 | 0.00 | 0.00 | 0.00 | 75 | 1018.9 |
| 20260506184422 | 19 | 9 | 9.7 | 14.5 | 0.00 | 0.00 | 0.00 | 75 | 1018.9 |
| 20260506182309 | 19 | 262 | 8.0 | 14.5 | 0.00 | 0.00 | 0.00 | 75 | 1019.0 |
| 20260506181334 | 18 | 298 | 8.0 | 12.9 | 0.00 | 0.00 | 0.00 | 75 | 1019.1 |
| 20260506180336 | 18 | 235 | 6.4 | 12.9 | 0.00 | 0.00 | 0.00 | 75 | 1019.1 |
| 20260506174149 | 18 | 218 | 6.4 | 11.3 | 0.00 | 0.00 | 0.00 | 76 | 1019.1 |
| 20260506173204 | 18 | 239 | 6.4 | 11.3 | 0.00 | 0.00 | 0.00 | 77 | 1019.0 |
| 20260506172210 | 17 | 293 | 6.4 | 11.3 | 0.00 | 0.00 | 0.00 | 77 | 1019.0 |
| 20260506171207 | 17 | 321 | 6.4 | 11.3 | 0.00 | 0.00 | 0.00 | 77 | 1018.9 |
| 20260506170206 | 17 | 259 | 6.4 | 11.3 | 0.00 | 0.00 | 0.00 | 76 | 1018.9 |
| 20260506165226 | 17 | 331 | 4.8 | 9.7 | 0.00 | 0.00 | 0.00 | 75 | 1018.8 |
| 20260506164242 | 17 | 30 | 4.8 | 8.0 | 0.00 | 0.00 | 0.00 | 77 | 1018.8 |
| 20260506162208 | 18 | 241 | 4.8 | 8.0 | 0.00 | 0.00 | 0.00 | 76 | 1018.8 |
| 20260506161134 | 18 | 258 | 1.6 | 6.4 | 0.00 | 0.00 | 0.00 | 75 | 1018.9 |
| 20260506160157 | 18 | 262 | 1.6 | 6.4 | 0.00 | 0.00 | 0.00 | 75 | 1018.8 |
| 20260506155210 | 18 | 352 | 1.6 | 4.8 | 0.00 | 0.00 | 0.00 | 76 | 1018.8 |
| 20260506154224 | 18 | 179 | 1.6 | 3.2 | 0.00 | 0.00 | 0.00 | 76 | 1018.8 |
| 20260506153236 | 17 | 100 | 0.0 | 1.6 | 0.00 | 0.00 | 0.00 | 77 | 1018.8 |
| 20260506152248 | 17 | 126 | 0.0 | 6.4 | 0.00 | 0.00 | 0.00 | 78 | 1018.7 |
| 20260506151241 | 17 | 239 | 0.0 | 6.4 | 0.00 | 0.00 | 0.00 | 80 | 1018.9 |
| 20260506150227 | 16 | 98 | 0.0 | 4.8 | 0.00 | 0.00 | 0.00 | 82 | 1018.9 |
| 20260506145227 | 16 | 67 | 1.6 | 6.4 | 0.00 | 0.00 | 0.00 | 83 | 1018.9 |
| 20260506144219 | 15 | 70 | 1.6 | 4.8 | 0.00 | 0.00 | 0.00 | 84 | 1018.8 |
| 20260506143205 | 15 | 92 | 0.0 | 3.2 | 0.00 | 0.00 | 0.00 | 85 | 1018.7 |
| 20260506142142 | 14 | 84 | 1.6 | 4.8 | 0.00 | 0.00 | 0.00 | 87 | 1018.7 |
| 20260506141144 | 14 | 80 | 1.6 | 4.8 | 0.00 | 0.00 | 0.00 | 88 | 1018.6 |
| 20260506140159 | 13 | 78 | 1.6 | 4.8 | 0.00 | 0.00 | 0.00 | 88 | 1018.5 |
| 20260506135152 | 13 | 70 | 0.0 | 3.2 | 0.00 | 0.00 | 0.00 | 88 | 1018.5 |
| 20260506133047 | 13 | 79 | 1.6 | 4.8 | 0.00 | 0.00 | 0.00 | 88 | 1018.3 |
| 20260506130916 | 13 | 72 | 1.6 | 3.2 | 0.00 | 0.00 | 0.00 | 88 | 1018.3 |
| 20260506125855 | 13 | 73 | 0.0 | 3.2 | 0.00 | 0.00 | 0.00 | 88 | 1018.0 |
| 20260506124825 | 13 | 84 | 0.0 | 0.0 | 0.00 | 0.00 | 0.00 | 87 | 1017.9 |
| 20260506123826 | 13 | 78 | 0.0 | 1.6 | 0.00 | 0.00 | 0.00 | 87 | 1018.0 |
| 20260506122801 | 13 | 79 | 0.0 | 3.2 | 0.00 | 0.00 | 0.00 | 87 | 1017.7 |
| 20260506121729 | 13 | 75 | 0.0 | 3.2 | 0.00 | 0.00 | 0.00 | 87 | 1017.7 |
| 20260506120711 | 13 | 86 | 0.0 | 1.6 | 0.00 | 0.00 | 0.00 | 86 | 1017.8 |
| 20260506115723 | 13 | 84 | 0.0 | 1.6 | 0.00 | 0.00 | 0.00 | 86 | 1017.7 |
| 20260506114737 | 13 | 65 | 0.0 | 0.0 | 0.00 | 0.00 | 0.00 | 86 | 1017.6 |
| 20260506113707 | 13 | 85 | 0.0 | 3.2 | 0.00 | 0.00 | 0.00 | 86 | 1017.6 |
| 20260506111555 | 13 | 108 | 0.0 | 3.2 | 0.00 | 0.00 | 0.00 | 88 | 1017.5 |
| 20260506110555 | 13 | 104 | 0.0 | 0.0 | 0.00 | 0.00 | 0.00 | 88 | 1017.5 |
| 20260506105543 | 13 | 104 | 0.0 | 0.0 | 0.00 | 0.00 | 0.00 | 87 | 1017.6 |
| 20260506104513 | 13 | 104 | 0.0 | 0.0 | 0.00 | 0.00 | 0.00 | 87 | 1017.6 |
| 20260506100048 | 14 | 104 | 0.0 | 0.0 | 0.00 | 0.00 | 0.00 | 88 | 1017.5 |
| 20260506095043 | 14 | 104 | 0.0 | 0.0 | 0.00 | 0.00 | 0.00 | 88 | 1017.6 |
| 20260506094106 | 14 | 104 | 0.0 | 0.0 | 0.00 | 0.00 | 0.00 | 88 | 1017.6 |
| 20260506093058 | 14 | 128 | 0.0 | 0.0 | 0.00 | 0.00 | 0.00 | 88 | 1017.6 |
| 20260506090953 | 15 | 95 | 0.0 | 0.0 | 0.00 | 0.00 | 0.00 | 88 | 1017.7 |
| 20260506084831 | 15 | 108 | 0.0 | 0.0 | 0.00 | 0.00 | 0.00 | 88 | 1017.9 |
| 20260506083757 | 15 | 101 | 0.0 | 4.8 | 0.00 | 0.00 | 0.00 | 87 | 1018.0 |
| 20260506082733 | 15 | 141 | 0.0 | 4.8 | 0.00 | 0.00 | 0.00 | 88 | 1018.0 |
| 20260506081701 | 15 | 105 | 1.6 | 8.0 | 0.00 | 0.00 | 0.00 | 87 | 1018.0 |
| 20260506080718 | 15 | 150 | 1.6 | 8.0 | 0.00 | 0.00 | 0.00 | 87 | 1018.0 |
| 20260506072603 | 15 | 153 | 1.6 | 4.8 | 0.00 | 0.00 | 0.00 | 86 | 1018.0 |
| 20260506070423 | 15 | 139 | 1.6 | 9.7 | 0.00 | 0.00 | 0.00 | 86 | 1017.9 |
| 20260506062325 | 15 | 75 | 1.6 | 6.4 | 0.00 | 0.00 | 0.00 | 87 | 1017.5 |
| 20260506061255 | 15 | 117 | 1.6 | 4.8 | 0.00 | 0.00 | 0.00 | 87 | 1017.4 |
| 20260506060228 | 15 | 141 | 0.0 | 4.8 | 0.00 | 0.00 | 0.00 | 86 | 1017.5 |
| 20260506051228 | 15 | 229 | 1.6 | 6.4 | 0.00 | 0.00 | 0.00 | 85 | 1017.1 |
| 20260506050221 | 15 | 223 | 1.6 | 6.4 | 0.00 | 0.00 | 0.00 | 85 | 1017.0 |